This is the latest recevied weather packets stored in our database for station/object W0CHP-13. If no packets are shown the sender has not sent any weather packets the latest 10 day(s).
| Time | Temp. | Humidity | Pressure | Rain* | Wind** | Luminosity | Snow |
|---|---|---|---|---|---|---|---|
| 1788118218 | 30° C | 63% | 1008.9 hPa | 0 mm | - | 366 W/m² | - |
| 1788117617 | 29.44° C | 66% | 1008.9 hPa | 0 mm | - | 379 W/m² | - |
| 1788117016 | 29.44° C | 67% | 1008.9 hPa | 0 mm | - | 606 W/m² | - |
| 1788116418 | 28.89° C | 67% | 1008.8 hPa | 0 mm | - | 593 W/m² | - |
| 1788115815 | 28.33° C | 68% | 1008.5 hPa | 0 mm | - | 488 W/m² | - |
| 1788115217 | 28.33° C | 68% | 1008.2 hPa | 0 mm | - | 362 W/m² | - |
| 1788114630 | 28.33° C | 71% | 1008.3 hPa | 0 mm | - | 339 W/m² | - |
| 1788114016 | 28.33° C | 69% | 1008.2 hPa | 0 mm | - | 391 W/m² | - |
| 1788113419 | 27.78° C | 71% | 1008.5 hPa | 0 mm | - | 599 W/m² | - |
| 1788112817 | 27.78° C | 72% | 1008.9 hPa | 0 mm | - | 357 W/m² | - |
| 1788112215 | 27.22° C | 72% | 1008.9 hPa | 0 mm | - | 172 W/m² | - |
| 1788111617 | 27.78° C | 71% | 1009.6 hPa | 0 mm | - | 171 W/m² | - |
| 1788111016 | 27.22° C | 72% | 1009.9 hPa | 0 mm | - | 255 W/m² | - |
| 1788110418 | 26.67° C | 73% | 1010.3 hPa | 0 mm | - | 244 W/m² | - |
| 1788109817 | 26.11° C | 75% | 1010.2 hPa | 0 mm | - | 187 W/m² | - |
| 1788109216 | 26.11° C | 74% | 1009.9 hPa | 0 mm | - | 154 W/m² | - |
| 1788108618 | 26.11° C | 74% | 1009.6 hPa | 0 mm | - | 99 W/m² | - |
| 1788108017 | 26.11° C | 74% | 1009.5 hPa | 0 mm | - | 123 W/m² | - |
| 1788107419 | 26.11° C | 74% | 1008.9 hPa | 0 mm | - | 217 W/m² | - |
| 1788106817 | 26.11° C | 74% | 1008.9 hPa | 0 mm | - | 290 W/m² | - |
| 1788106216 | 25.56° C | 74% | 1008.9 hPa | 0 mm | - | 251 W/m² | - |
| 1788105618 | 25.56° C | 75% | 1008.8 hPa | 0 mm | - | 259 W/m² | - |
| 1788105017 | 25.56° C | 75% | 1008.5 hPa | 0 mm | - | 254 W/m² | - |
| 1788104415 | 25.56° C | 75% | 1008.5 hPa | 0 mm | - | 199 W/m² | - |
| 1788103816 | 25.56° C | 74% | 1008.5 hPa | 0 mm | - | 198 W/m² | - |
* Rain latest hour (hover to see other rain measurements)
** Current wind speed in m/s (hover to see current wind gust speed)